User: anonymous   Login
Location: Unspecified
(0.0000°N, 0.0000°E)
Time: 08:53:52
(UTC+00:00)
Language:

DSP F16 - Orbit

View from above orbital plane
View from above orbital plane
View from above satellite
View from above satellite

Ground track
Ground track

The orbit data is extracted from the following two-line orbital elements,

1 21805U 91080B   17107.22387218 0.00000000  00000-0  00000-0 0    06
2 21805  15.0989  13.7023 0003279 335.4598  24.5366  0.99194965    02
Epoch (UTC): 17 April 2017 05:22:22
Eccentricity: 0.0003279
inclination: 15.0989°
perigee height: 36077 km
apogee height: 36105 km
right ascension of ascending node: 13.7023°
argument of perigee: 335.4598°
revolutions per day: 0.99194965
mean anomaly at epoch: 24.5366°
orbit number at epoch: 0

The dashed part of the orbit path shows where the satellite is in the earth's shadow,  

DLR